This demonstration page uses our WeatherBlox Daily Observations layout. Learn more.

Left ArrowRight Arrow

44.89941, -97.11507

Hourly Observations for October 25, 2021

Temp ( °F °C ) Dew Point ( °F °C ) Humidity (%) Winds ( mph kmh ) Pressure ( in mb ) Visibility ( mi km ) Precip ( " mm )
12:53 am 00:53 Cloudy 40 4.4 37 2.8 89 89 N 3 6 30.10 1019 10 16 N/A
1:53 am 01:53 Cloudy 40 4.4 37 2.8 89 89 N 3 6 30.11 1020 10 16 N/A
2:53 am 02:53 Cloudy 39 3.9 37 2.8 93 93 N 3 6 30.11 1020 10 16 N/A
3:53 am 03:53 Cloudy 39 3.9 36 2.2 89 89 NE 5 7 30.11 1020 10 16 N/A
4:53 am 04:53 Cloudy 39 3.9 35 1.7 86 86 E 7 11 30.10 1019 10 16 N/A
5:53 am 05:53 Cloudy 38 3.3 35 1.7 89 89 E 6 9 30.11 1020 10 16 N/A
6:53 am 06:53 Clear 36 2.2 34 1.1 93 93 E 5 7 30.13 1020 10 16 N/A
7:53 am 07:53 Clear 36 2.2 33 0.6 89 89 N N/A 30.14 1021 10 16 N/A
8:53 am 08:53 Sunny 36 2.2 34 1.1 93 93 VRB 3 6 30.16 1021 10 16 N/A
9:53 am 09:53 Sunny 39 3.9 35 1.7 86 86 SE 7 11 30.16 1021 10 16 N/A
10:53 am 10:53 Sunny 43 6.1 36 2.2 76 76 ESE 7 11 30.13 1020 10 16 N/A
11:53 am 11:53 Sunny 45 7.2 36 2.2 71 71 SE 12 19 30.13 1020 10 16 N/A
12:53 pm 12:53 Sunny 47 8.3 35 1.7 63 63 SE 13 20 30.11 1020 10 16 N/A
1:53 pm 13:53 Sunny 48 8.9 35 1.7 61 61 SSE 15 24 30.09 1019 10 16 N/A
2:53 pm 14:53 Sunny 49 9.4 33 0.6 55 55 SE 13 20 30.07 1018 10 16 N/A
3:53 pm 15:53 Sunny 50 10 33 0.6 52 52 SE 12 19 30.05 1018 10 16 N/A
4:53 pm 16:53 Sunny 49 9.4 34 1.1 56 56 SE 15 24 30.04 1017 10 16 N/A
5:53 pm 17:53 Sunny 48 8.9 35 1.7 61 61 ESE 10 17 30.01 1016 10 16 N/A
6:53 pm 18:53 Clear 46 7.8 36 2.2 68 68 SE 9 15 30.03 1017 10 16 N/A
7:53 pm 19:53 Clear 45 7.2 35 1.7 68 68 SE 10 17 30.03 1017 10 16 N/A
8:53 pm 20:53 Clear 44 6.7 34 1.1 68 68 SE 13 20 30.03 1017 10 16 N/A
9:53 pm 21:53 Clear 44 6.7 35 1.7 71 71 SE 14 22 30.02 1017 10 16 N/A
10:53 pm 22:53 Clear 44 6.7 35 1.7 71 71 SSE 14 22 30.02 1017 10 16 N/A
11:53 pm 23:53 Clear 43 6.1 35 1.7 74 74 SE 12 19 30.00 1016 10 16 N/A

Powered by AerisWeather